{"data":{"norad_id":66751,"intl_designator":"2025-276CP","name":"ICEYE-X58","alt_names":[],"object_type":"PAYLOAD","status":"ACTIVE","operator":null,"country":"FIN","launch_date":"2025-11-28","launch_site_code":"AFWTR","launch_vehicle":null,"mission":null,"orbit_class":"UNKNOWN","rcs_meters":null,"size_class":null,"mass_kg":null,"dimensions":null,"purposes":[],"wikipedia_slug":null,"has_3d_model":false,"image_url":null,"decayed_at":null,"tle_current":{"epoch":"2026-09-20T22:28:46.405344Z","epoch_age_seconds":79744,"freshness":"FRESH","line1":"1 66751U 25276CP  26263.93664821  .00001638  00000+0  84867-4 0  9999","line2":"2 66751  97.4124 335.4026 0003637  28.7533 331.3900 15.17570744 44934","mean_motion":15.17570744,"eccentricity":0.0003637,"inclination_deg":97.4124,"raan_deg":335.4026,"arg_perigee_deg":28.7533,"mean_anomaly_deg":331.39,"bstar":8.4867e-5,"rev_number":4493,"period_min":94.888492394395,"perigee_km":510.67864681319,"apogee_km":515.691394451,"semimajor_km":6891.3220206321,"source":"CELESTRAK","updated_at":"2026-09-21T09:00:16.179784Z"}}}